﻿測定場所 (Monitoring sites),日付 (Measurement date),時間 (Measurement time),線量率 最大値 (max) μGy/h,線量率 最小値 (min) μGy/h,線量率 平均値 (average) μGy/h,
足立 (Adachi),2013-03-03,23:01～24:00,0.0584,0.0520,0.0550,
足立 (Adachi),2013-03-03,22:01～23:00,0.0581,0.0504,0.0544,
足立 (Adachi),2013-03-03,21:01～22:00,0.0590,0.0505,0.0547,
足立 (Adachi),2013-03-03,20:01～21:00,0.0590,0.0520,0.0550,
足立 (Adachi),2013-03-03,19:01～20:00,0.0583,0.0514,0.0548,
足立 (Adachi),2013-03-03,18:01～19:00,0.0579,0.0521,0.0551,
足立 (Adachi),2013-03-03,17:01～18:00,0.0585,0.0520,0.0550,
足立 (Adachi),2013-03-03,16:01～17:00,0.0577,0.0517,0.0548,
足立 (Adachi),2013-03-03,15:01～16:00,0.0583,0.0516,0.0551,
足立 (Adachi),2013-03-03,14:01～15:00,0.0595,0.0512,0.0551,
足立 (Adachi),2013-03-03,13:01～14:00,0.0574,0.0508,0.0547,
足立 (Adachi),2013-03-03,12:01～13:00,0.0582,0.0507,0.0549,
足立 (Adachi),2013-03-03,11:01～12:00,0.0580,0.0518,0.0549,
足立 (Adachi),2013-03-03,10:01～11:00,0.0581,0.0517,0.0549,
足立 (Adachi),2013-03-03,09:01～10:00,0.0588,0.0520,0.0546,
足立 (Adachi),2013-03-03,08:01～09:00,0.0584,0.0510,0.0546,
足立 (Adachi),2013-03-03,07:01～08:00,0.0571,0.0507,0.0535,
足立 (Adachi),2013-03-03,06:01～07:00,0.0575,0.0515,0.0547,
足立 (Adachi),2013-03-03,05:01～06:00,0.0585,0.0518,0.0548,
足立 (Adachi),2013-03-03,04:01～05:00,0.0572,0.0516,0.0546,
足立 (Adachi),2013-03-03,03:01～04:00,0.0578,0.0519,0.0546,
足立 (Adachi),2013-03-03,02:01～03:00,0.0572,0.0514,0.0547,
足立 (Adachi),2013-03-03,01:01～02:00,0.0585,0.0509,0.0551,
足立 (Adachi),2013-03-03,00:01～01:00,0.0582,0.0508,0.0548,
足立 (Adachi),2013-03-02,23:01～24:00,0.0587,0.0510,0.0553,
足立 (Adachi),2013-03-02,22:01～23:00,0.0581,0.0520,0.0553,
足立 (Adachi),2013-03-02,21:01～22:00,0.0581,0.0511,0.0549,
足立 (Adachi),2013-03-02,20:01～21:00,0.0597,0.0520,0.0551,
足立 (Adachi),2013-03-02,19:01～20:00,0.0596,0.0508,0.0555,
足立 (Adachi),2013-03-02,18:01～19:00,0.0577,0.0518,0.0548,
足立 (Adachi),2013-03-02,17:01～18:00,0.0585,0.0513,0.0547,
足立 (Adachi),2013-03-02,16:01～17:00,0.0586,0.0510,0.0554,
足立 (Adachi),2013-03-02,15:01～16:00,0.0592,0.0523,0.0553,
足立 (Adachi),2013-03-02,14:01～15:00,0.0586,0.0523,0.0553,
足立 (Adachi),2013-03-02,13:01～14:00,0.0600,0.0520,0.0552,
足立 (Adachi),2013-03-02,12:01～13:00,0.0577,0.0521,0.0550,
足立 (Adachi),2013-03-02,11:01～12:00,0.0584,0.0524,0.0555,
足立 (Adachi),2013-03-02,10:01～11:00,0.0597,0.0518,0.0549,
足立 (Adachi),2013-03-02,09:01～10:00,0.0581,0.0516,0.0549,
足立 (Adachi),2013-03-02,08:01～09:00,0.0576,0.0516,0.0544,
足立 (Adachi),2013-03-02,07:01～08:00,0.0584,0.0502,0.0541,
足立 (Adachi),2013-03-02,06:01～07:00,0.0578,0.0516,0.0540,
足立 (Adachi),2013-03-02,05:01～06:00,0.0575,0.0493,0.0543,
足立 (Adachi),2013-03-02,04:01～05:00,0.0584,0.0497,0.0538,
足立 (Adachi),2013-03-02,03:01～04:00,0.0579,0.0504,0.0538,
足立 (Adachi),2013-03-02,02:01～03:00,0.0572,0.0508,0.0540,
足立 (Adachi),2013-03-02,01:01～02:00,0.0570,0.0503,0.0537,
足立 (Adachi),2013-03-02,00:01～01:00,0.0584,0.0499,0.0553,
足立 (Adachi),2013-03-01,23:01～24:00,0.0666,0.0535,0.0596,
足立 (Adachi),2013-03-01,22:01～23:00,0.0784,0.0620,0.0712,
足立 (Adachi),2013-03-01,21:01～22:00,0.0762,0.0604,0.0672,
足立 (Adachi),2013-03-01,20:01～21:00,0.0656,0.0541,0.0599,
足立 (Adachi),2013-03-01,19:01～20:00,0.0576,0.0510,0.0546,
足立 (Adachi),2013-03-01,18:01～19:00,0.0580,0.0518,0.0548,
足立 (Adachi),2013-03-01,17:01～18:00,0.0571,0.0503,0.0540,
足立 (Adachi),2013-03-01,16:01～17:00,0.0574,0.0508,0.0540,
足立 (Adachi),2013-03-01,15:01～16:00,0.0581,0.0515,0.0545,
足立 (Adachi),2013-03-01,14:01～15:00,0.0584,0.0504,0.0541,
足立 (Adachi),2013-03-01,13:01～14:00,0.0582,0.0492,0.0535,
足立 (Adachi),2013-03-01,12:01～13:00,0.0577,0.0490,0.0534,
足立 (Adachi),2013-03-01,11:01～12:00,0.0570,0.0501,0.0539,
足立 (Adachi),2013-03-01,10:01～11:00,0.0572,0.0482,0.0540,
足立 (Adachi),2013-03-01,09:01～10:00,0.0570,0.0510,0.0538,
足立 (Adachi),2013-03-01,08:01～09:00,0.0579,0.0509,0.0543,
足立 (Adachi),2013-03-01,07:01～08:00,0.0589,0.0499,0.0542,
足立 (Adachi),2013-03-01,06:01～07:00,0.0592,0.0503,0.0546,
足立 (Adachi),2013-03-01,05:01～06:00,0.0574,0.0518,0.0544,
足立 (Adachi),2013-03-01,04:01～05:00,0.0572,0.0518,0.0543,
足立 (Adachi),2013-03-01,03:01～04:00,0.0596,0.0528,0.0553,
足立 (Adachi),2013-03-01,02:01～03:00,0.0585,0.0520,0.0554,
足立 (Adachi),2013-03-01,01:01～02:00,0.0592,0.0514,0.0550,
足立 (Adachi),2013-03-01,00:01～01:00,0.0608,0.0518,0.0553,
足立 (Adachi),2013-02-28,23:01～24:00,0.0575,0.0516,0.0547,
足立 (Adachi),2013-02-28,22:01～23:00,0.0582,0.0517,0.0547,
足立 (Adachi),2013-02-28,21:01～22:00,0.0577,0.0504,0.0547,
足立 (Adachi),2013-02-28,20:01～21:00,0.0573,0.0517,0.0545,
足立 (Adachi),2013-02-28,19:01～20:00,0.0580,0.0510,0.0540,
足立 (Adachi),2013-02-28,18:01～19:00,0.0576,0.0512,0.0542,
足立 (Adachi),2013-02-28,17:01～18:00,0.0572,0.0501,0.0542,
足立 (Adachi),2013-02-28,16:01～17:00,0.0563,0.0496,0.0536,
足立 (Adachi),2013-02-28,15:01～16:00,0.0572,0.0499,0.0541,
足立 (Adachi),2013-02-28,14:01～15:00,0.0566,0.0500,0.0543,
足立 (Adachi),2013-02-28,13:01～14:00,0.0574,0.0510,0.0542,
足立 (Adachi),2013-02-28,12:01～13:00,0.0567,0.0510,0.0543,
足立 (Adachi),2013-02-28,11:01～12:00,0.0569,0.0508,0.0541,
足立 (Adachi),2013-02-28,10:01～11:00,0.0577,0.0503,0.0547,
足立 (Adachi),2013-02-28,09:01～10:00,0.0585,0.0511,0.0543,
足立 (Adachi),2013-02-28,08:01～09:00,0.0578,0.0498,0.0536,
足立 (Adachi),2013-02-28,07:01～08:00,0.0575,0.0502,0.0529,
足立 (Adachi),2013-02-28,06:01～07:00,0.0577,0.0509,0.0539,
足立 (Adachi),2013-02-28,05:01～06:00,0.0569,0.0503,0.0540,
足立 (Adachi),2013-02-28,04:01～05:00,0.0589,0.0507,0.0545,
足立 (Adachi),2013-02-28,03:01～04:00,0.0597,0.0517,0.0551,
足立 (Adachi),2013-02-28,02:01～03:00,0.0587,0.0519,0.0549,
足立 (Adachi),2013-02-28,01:01～02:00,0.0581,0.0515,0.0547,
足立 (Adachi),2013-02-28,00:01～01:00,0.0584,0.0511,0.0545,
足立 (Adachi),2013-02-27,23:01～24:00,0.0589,0.0515,0.0544,
足立 (Adachi),2013-02-27,22:01～23:00,0.0601,0.0511,0.0546,
足立 (Adachi),2013-02-27,21:01～22:00,0.0567,0.0503,0.0539,
足立 (Adachi),2013-02-27,20:01～21:00,0.0576,0.0519,0.0543,
足立 (Adachi),2013-02-27,19:01～20:00,0.0584,0.0507,0.0542,
足立 (Adachi),2013-02-27,18:01～19:00,0.0569,0.0502,0.0537,
足立 (Adachi),2013-02-27,17:01～18:00,0.0571,0.0513,0.0540,
足立 (Adachi),2013-02-27,16:01～17:00,0.0572,0.0508,0.0541,
足立 (Adachi),2013-02-27,15:01～16:00,0.0567,0.0497,0.0536,
足立 (Adachi),2013-02-27,14:01～15:00,0.0573,0.0500,0.0534,
足立 (Adachi),2013-02-27,13:01～14:00,0.0580,0.0504,0.0538,
足立 (Adachi),2013-02-27,12:01～13:00,0.0583,0.0521,0.0549,
足立 (Adachi),2013-02-27,11:01～12:00,0.0598,0.0538,0.0567,
足立 (Adachi),2013-02-27,10:01～11:00,0.0621,0.0548,0.0585,
足立 (Adachi),2013-02-27,09:01～10:00,0.0618,0.0549,0.0587,
足立 (Adachi),2013-02-27,08:01～09:00,0.0595,0.0525,0.0562,
足立 (Adachi),2013-02-27,07:01～08:00,0.0651,0.0564,0.0591,
足立 (Adachi),2013-02-27,06:01～07:00,0.0640,0.0549,0.0598,
足立 (Adachi),2013-02-27,05:01～06:00,0.0638,0.0559,0.0599,
足立 (Adachi),2013-02-27,04:01～05:00,0.0638,0.0570,0.0607,
足立 (Adachi),2013-02-27,03:01～04:00,0.0635,0.0545,0.0587,
足立 (Adachi),2013-02-27,02:01～03:00,0.0622,0.0547,0.0589,
足立 (Adachi),2013-02-27,01:01～02:00,0.0606,0.0538,0.0565,
足立 (Adachi),2013-02-27,00:01～01:00,0.0614,0.0524,0.0566,
足立 (Adachi),2013-02-26,23:01～24:00,0.0606,0.0517,0.0557,
足立 (Adachi),2013-02-26,22:01～23:00,0.0592,0.0514,0.0558,
足立 (Adachi),2013-02-26,21:01～22:00,0.0580,0.0518,0.0554,
足立 (Adachi),2013-02-26,20:01～21:00,0.0582,0.0511,0.0552,
足立 (Adachi),2013-02-26,19:01～20:00,0.0575,0.0516,0.0550,
足立 (Adachi),2013-02-26,18:01～19:00,0.0578,0.0515,0.0547,
足立 (Adachi),2013-02-26,17:01～18:00,0.0580,0.0517,0.0547,
足立 (Adachi),2013-02-26,16:01～17:00,0.0588,0.0512,0.0550,
足立 (Adachi),2013-02-26,15:01～16:00,0.0576,0.0512,0.0550,
足立 (Adachi),2013-02-26,14:01～15:00,0.0610,0.0506,0.0552,
足立 (Adachi),2013-02-26,13:01～14:00,0.0589,0.0512,0.0553,
足立 (Adachi),2013-02-26,12:01～13:00,0.0572,0.0502,0.0544,
足立 (Adachi),2013-02-26,11:01～12:00,0.0594,0.0514,0.0549,
足立 (Adachi),2013-02-26,10:01～11:00,0.0592,0.0519,0.0551,
足立 (Adachi),2013-02-26,09:01～10:00,0.0575,0.0513,0.0543,
足立 (Adachi),2013-02-26,08:01～09:00,0.0593,0.0494,0.0543,
足立 (Adachi),2013-02-26,07:01～08:00,0.0583,0.0514,0.0543,
足立 (Adachi),2013-02-26,06:01～07:00,0.0568,0.0525,0.0543,
足立 (Adachi),2013-02-26,05:01～06:00,0.0577,0.0513,0.0546,
足立 (Adachi),2013-02-26,04:01～05:00,0.0575,0.0514,0.0547,
足立 (Adachi),2013-02-26,03:01～04:00,0.0577,0.0515,0.0549,
足立 (Adachi),2013-02-26,02:01～03:00,0.0582,0.0518,0.0550,
足立 (Adachi),2013-02-26,01:01～02:00,0.0594,0.0521,0.0554,
足立 (Adachi),2013-02-26,00:01～01:00,0.0586,0.0510,0.0552,
足立 (Adachi),2013-02-25,23:01～24:00,0.0583,0.0521,0.0551,
足立 (Adachi),2013-02-25,22:01～23:00,0.0598,0.0528,0.0554,
足立 (Adachi),2013-02-25,21:01～22:00,0.0584,0.0515,0.0551,
足立 (Adachi),2013-02-25,20:01～21:00,0.0586,0.0512,0.0543,
足立 (Adachi),2013-02-25,19:01～20:00,0.0593,0.0514,0.0544,
足立 (Adachi),2013-02-25,18:01～19:00,0.0579,0.0514,0.0544,
足立 (Adachi),2013-02-25,17:01～18:00,0.0578,0.0514,0.0545,
足立 (Adachi),2013-02-25,16:01～17:00,0.0576,0.0514,0.0548,
足立 (Adachi),2013-02-25,15:01～16:00,0.0595,0.0504,0.0549,
足立 (Adachi),2013-02-25,14:01～15:00,0.0576,0.0509,0.0550,
足立 (Adachi),2013-02-25,13:01～14:00,0.0576,0.0513,0.0549,
足立 (Adachi),2013-02-25,12:01～13:00,0.0574,0.0510,0.0545,
足立 (Adachi),2013-02-25,11:01～12:00,0.0576,0.0518,0.0547,
足立 (Adachi),2013-02-25,10:01～11:00,0.0585,0.0518,0.0549,
足立 (Adachi),2013-02-25,09:01～10:00,0.0595,0.0504,0.0545,
足立 (Adachi),2013-02-25,08:01～09:00,0.0579,0.0515,0.0547,
足立 (Adachi),2013-02-25,07:01～08:00,0.0564,0.0494,0.0539,
足立 (Adachi),2013-02-25,06:01～07:00,0.0584,0.0505,0.0544,
足立 (Adachi),2013-02-25,05:01～06:00,0.0578,0.0515,0.0545,
足立 (Adachi),2013-02-25,04:01～05:00,0.0580,0.0520,0.0550,
足立 (Adachi),2013-02-25,03:01～04:00,0.0575,0.0492,0.0535,
足立 (Adachi),2013-02-25,02:01～03:00,0.0559,0.0484,0.0530,
足立 (Adachi),2013-02-25,01:01～02:00,0.0570,0.0507,0.0535,
足立 (Adachi),2013-02-25,00:01～01:00,0.0583,0.0504,0.0539,
